{"data":{"norad_id":59013,"epoch":"2026-05-25T05:00:29.450016Z","epoch_age_seconds":51029,"freshness":"FRESH","line1":"1 59013U 24036R   26145.20867419  .00003304  00000+0  12372-3 0  9995","line2":"2 59013  53.1609  83.0550 0001264 102.5670 257.5473 15.30174813127049","mean_motion":15.30174813,"eccentricity":0.0001264,"inclination_deg":53.1609,"raan_deg":83.055,"arg_perigee_deg":102.567,"mean_anomaly_deg":257.5473,"bstar":0.00012372,"rev_number":12704,"period_min":94.106894700272,"perigee_km":474.42400108542,"apogee_km":476.15654750037,"semimajor_km":6853.4272742929,"source":"CELESTRAK","updated_at":"2026-05-25T13:38:18.819742Z"}}